Terminal Aerodrome Forecast
Issued by NWS

Home | Current Version | Previous Version | Text Only | Print | Product List | Glossary On
Versions: 1 2 3 4 5 6 7 8 9 10 11 12 13 14 15 16 17 18 19 20 21 22 23 24 25 26 27 28 29 30 31
000
FTUS43 KDLH 221700
TAFHIB
TAF
KHIB 221736Z 2218/2318 12004KT P6SM OVC010
     FM221900 06004KT P6SM SCT015 BKN040
     FM230500 09003KT 4SM BR BKN015
     FM230800 08003KT 1 1/2SM BR OVC004
     FM231700 09006KT P6SM OVC015=

USA.gov is the U.S. government's official web portal to all federal, state and local government web resources and services.